DW8871 Weather Reports


Display with metric or nautical units.
time (UTC)temp
F
wind
direction
speed
MPH
gust
MPH
rain 1hr
in
rain 24hr
in
rain mn
in
humidity
%
barometer
mb
20260509141532 62 0 1.0 6.0 0.00 0.08 0.01 76 1009.6
20260509140049 61 234 3.0 7.0 0.00 0.08 0.01 77 1009.5
20260509134530 59 235 1.0 8.0 0.00 0.08 0.01 82 1009.4
20260509133029 58 255 1.0 7.0 0.00 0.08 0.01 86 1009.5
20260509131540 57 267 1.0 4.0 0.00 0.08 0.01 90 1009.5
20260509130032 55 0 0.0 6.0 0.00 0.08 0.01 93 1009.3
20260509124534 54 279 1.0 7.0 0.00 0.08 0.01 94 1009.2
20260509123032 53 0 1.0 7.0 0.00 0.08 0.01 95 1009.0
20260509121544 53 263 2.0 7.0 0.00 0.08 0.01 95 1008.9
20260509120034 52 246 1.0 5.0 0.00 0.08 0.01 95 1008.8
20260509114534 52 257 1.0 4.0 0.00 0.08 0.01 95 1008.6
20260509113030 52 242 2.0 5.0 0.00 0.08 0.01 95 1008.6
20260509111529 51 240 1.0 4.0 0.00 0.08 0.01 95 1008.4
20260509110031 51 286 0.0 3.0 0.00 0.08 0.01 95 1008.2
20260509104532 51 267 0.0 3.0 0.00 0.08 0.01 95 1008.3
20260509103030 51 0 0.0 2.0 0.00 0.08 0.01 95 1008.3
20260509101533 52 0 0.0 2.0 0.00 0.08 0.01 95 1008.3
20260509100033 53 0 0.0 3.0 0.00 0.08 0.01 95 1008.3
20260509094532 53 242 1.0 5.0 0.00 0.08 0.01 95 1008.3
20260509093032 53 223 1.0 3.0 0.00 0.08 0.01 95 1008.3
20260509091533 53 217 1.0 4.0 0.00 0.08 0.01 95 1008.4
20260509090028 53 246 1.0 3.0 0.00 0.08 0.01 95 1008.3
20260509084536 53 259 1.0 3.0 0.00 0.08 0.01 95 1008.2
20260509083043 52 274 0.0 3.0 0.00 0.08 0.01 95 1008.2
20260509081532 53 241 0.0 2.0 0.00 0.08 0.01 95 1008.2
20260509080031 53 241 1.0 4.0 0.00 0.08 0.01 95 1008.2
20260509074531 53 234 2.0 4.0 0.00 0.08 0.01 95 1008.3
20260509073030 53 230 1.0 3.0 0.00 0.08 0.01 95 1008.4
20260509071531 52 233 1.0 3.0 0.01 0.08 0.01 95 1008.3
20260509070036 53 239 1.0 2.0 0.01 0.08 0.01 94 1008.3
20260509064530 53 242 1.0 3.0 0.01 0.08 0.01 95 1008.6
20260509063034 52 0 1.0 3.0 0.01 0.08 0.01 94 1008.7
20260509061539 52 0 0.0 2.0 0.00 0.07 0.00 94 1008.8
20260509060030 52 0 0.0 0.0 0.00 0.07 0.00 94 1008.9
20260509054530 53 0 0.0 0.0 0.00 0.07 0.00 94 1009.0
20260509053039 53 0 0.0 0.0 0.00 0.07 0.00 94 1008.8
20260509051531 53 0 0.0 3.0 0.00 0.07 0.00 94 1009.0
20260509050032 53 0 0.0 1.0 0.00 0.07 0.00 94 1008.9
20260509044529 53 0 0.0 1.0 0.00 0.07 0.07 93 1008.9
20260509043030 53 0 0.0 0.0 0.00 0.07 0.07 93 1008.8
20260509041539 53 0 0.0 1.0 0.00 0.07 0.07 92 1008.9
20260509040030 54 0 0.0 1.0 0.00 0.07 0.07 93 1009.0
20260509034530 54 0 0.0 1.0 0.00 0.07 0.07 92 1009.1
20260509033032 55 0 0.0 1.0 0.00 0.07 0.07 93 1009.0
20260509031531 55 0 0.0 1.0 0.00 0.07 0.07 92 1009.1
20260509030032 54 0 0.0 1.0 0.00 0.07 0.07 91 1009.0
20260509024530 55 0 0.0 2.0 0.00 0.07 0.07 90 1008.7
20260509023030 56 0 0.0 0.0 0.00 0.07 0.07 90 1008.6
20260509021533 56 0 0.0 1.0 0.00 0.07 0.07 88 1008.4
20260509020030 57 0 0.0 2.0 0.00 0.07 0.07 88 1008.5
20260509014529 58 0 0.0 0.0 0.00 0.07 0.07 85 1008.2
20260509013029 60 0 0.0 0.0 0.00 0.07 0.07 83 1008.1
20260509011531 61 0 0.0 0.0 0.00 0.07 0.07 83 1008.0
20260509010045 63 0 0.0 0.0 0.00 0.07 0.07 80 1008.0
20260509004531 64 0 0.0 0.0 0.00 0.07 0.07 79 1007.9
20260509003028 64 0 0.0 2.0 0.00 0.07 0.07 79 1007.6
20260509001528 65 0 0.0 1.0 0.00 0.07 0.07 79 1007.6
20260509000028 64 0 0.0 0.0 0.00 0.07 0.07 80 1007.2
20260508234535 64 0 1.0 4.0 0.00 0.07 0.07 78 1007.3
20260508233029 65 0 0.0 7.0 0.00 0.07 0.07 78 1007.8
20260508231528 65 30 0.0 3.0 0.00 0.07 0.07 80 1007.8
20260508230038 64 0 0.0 2.0 0.00 0.07 0.07 83 1007.7
20260508224535 63 0 0.0 4.0 0.00 0.07 0.07 85 1007.4
20260508223027 62 293 2.0 7.0 0.02 0.07 0.07 88 1007.3
20260508221542 61 242 2.0 7.0 0.04 0.07 0.07 91 1007.0
20260508220033 60 234 1.0 7.0 0.05 0.07 0.07 90 1007.0
20260508214528 60 226 1.0 5.0 0.06 0.07 0.07 89 1008.0
20260508213029 60 0 0.0 2.0 0.04 0.04 0.04 87 1008.8
20260508211530 61 0 0.0 2.0 0.03 0.03 0.03 86 1009.0
20260508210030 62 0 0.0 4.0 0.02 0.02 0.02 85 1009.1
20260508204533 62 0 0.0 4.0 0.01 0.01 0.01 82 1009.1
20260508203032 63 0 0.0 1.0 0.00 0.00 0.00 79 1009.6
20260508201531 64 0 0.0 6.0 0.00 0.00 0.00 76 1009.2
20260508200031 66 0 0.0 5.0 0.00 0.00 0.00 75 1009.0
20260508194546 65 0 0.0 0.0 0.00 0.00 0.00 69 1009.2
20260508193029 65 0 0.0 4.0 0.00 0.00 0.00 69 1009.1
20260508191532 64 258 0.0 3.0 0.00 0.00 0.00 70 1009.1
20260508190040 64 0 0.0 4.0 0.00 0.00 0.00 71 1008.7
20260508184536 64 227 2.0 6.0 0.00 0.00 0.00 71 1009.4
20260508183032 64 0 0.0 2.0 0.00 0.00 0.00 70 1008.7
20260508181531 64 0 0.0 3.0 0.00 0.00 0.00 69 1008.8
20260508180030 63 0 2.0 9.0 0.00 0.00 0.00 69 1009.5
20260508174538 64 200 1.0 8.0 0.00 0.00 0.00 69 1009.4
20260508173030 63 259 2.0 5.0 0.00 0.00 0.00 70 1009.5
20260508171532 63 0 0.0 1.0 0.00 0.00 0.00 70 1009.4
20260508170032 62 0 0.0 3.0 0.00 0.00 0.00 71 1009.2
20260508164536 62 0 1.0 4.0 0.00 0.00 0.00 72 1009.4
20260508163032 61 310 2.0 7.0 0.00 0.00 0.00 71 1010.7
20260508161531 61 237 3.0 8.0 0.00 0.00 0.00 70 1010.2
20260508160032 61 275 2.0 8.0 0.00 0.00 0.00 71 1009.8
20260508154532 61 237 5.0 9.0 0.00 0.00 0.00 72 1009.6
20260508153033 60 225 3.0 9.0 0.00 0.00 0.00 73 1009.5
20260508151532 59 237 3.0 8.0 0.00 0.00 0.00 74 1009.7
20260508150039 59 235 3.0 9.0 0.00 0.00 0.00 73 1009.9
20260508144529 59 219 3.0 6.0 0.00 0.00 0.00 72 1010.1
20260508143030 59 239 2.0 5.0 0.00 0.00 0.00 71 1010.3